Simultaneous Nadir Overpasses (SNOs) Predictions

Prediction of SNOs between GOES-16 and NOAA-20 Satellite Orbit:

Table of predicted SNOs for the next 14.0 days since TLE Epoch: 5/6/2023
Index Date Time (GOES-16) GOES-16 Lat,Lon NOAA-20 Lat,Lon Distance(km) Time Diff (sec)
1 05/07/2023 06:39:30 -0.02, -75.20 0.63, -78.01 321.05 80
2 05/08/2023 06:18:05 -0.02, -75.20 -0.38, -73.48 195.86 80
3 05/09/2023 18:40:01 0.02, -75.21 -0.81, -78.78 407.29 80
4 05/10/2023 18:23:57 0.02, -75.21 0.20, -74.24 109.99 80
5 05/12/2023 06:45:45 -0.01, -75.23 0.95, -79.51 488.89 80
6 05/13/2023 06:24:21 -0.01, -75.23 -0.06, -74.98 28.72 80
7 05/15/2023 18:27:33 0.01, -75.27 -0.10, -75.75 54.89 80
8 05/16/2023 18:11:28 0.01, -75.29 0.92, -71.22 463.54 80
9 05/18/2023 06:33:16 -0.01, -75.31 0.23, -76.49 133.55 80
10 05/19/2023 06:11:52 -0.01, -75.33 -0.79, -71.96 385.08 80
